[[{"header":{"parameterUnit":"m.s-1","parameterCategory":1,"la1":30.2991,"la2":30.254,"lo1":-89.0895,"lo2":-89.0444,"dy":0.0017,"dx":0.0017,"nx":28,"ny":28,"refTime":"2025-04-05T09:00:00:Z","depth":0,"parameterNumber":2,"parameterNumberName":"U-component_of_WINDS"},"data":[0,0,0,0,0,0,0,0,0,0,0,0,0,0,0,0,0,0,0,0,0,0,0,0,0,0,0,0,0,0,0,0,0,0,0,0,0,0,0,0,0,0,0,0,0,0,0,0,0,0,0,0,0,0,0,0,0,0,-5.0036,-5.0037,0,-5.0154,-5.0156,-5.0157,-5.0171,-5.017,-5.0169,-5.0168,-5.0287,-5.0291,-5.0295,0,0,0,0,0,0,0,0,0,0,0,0,0,-4.9822,-4.9826,-5.0036,-5.0037,-5.0039,-5.0154,-5.0156,-5.0157,-5.0172,-5.017,-5.0169,-5.0168,-5.0285,-5.029,-5.0295,0,0,0,0,0,0,0,0,0,0,0,0,0,-4.9925,-4.9827,-5.0036,-5.006,-5.0063,-5.0154,-5.0156,-5.0158,-5.0172,-5.017,-5.0169,-5.0167,-5.0284,-5.029,-5.0296,-5.0369,0,0,-5.0315,-5.0318,0,0,0,0,0,0,0,0,-4.9919,-4.9933,-5.0055,-5.0059,-5.0063,-5.0146,-5.0124,-5.0229,-5.0172,-5.0131,-5.0168,-5.0166,-5.0241,-5.0251,-5.0277,-5.0375,-5.038,-5.0316,-5.032,-5.0322,-5.0324,0,0,0,0,0,0,0,-4.9912,-4.9928,-5.0083,-5.0057,-5.0061,-5.0065,-5.0078,-5.0144,-5.0194,-5.0134,-5.0136,-5.0149,-5.0243,-5.0271,-5.028,-5.0382,-5.0316,-5.0321,-5.0325,-5.0328,-5.0547,-5.0549,0,0,0,0,0,0,-4.9901,-4.9922,-5.0079,-5.0086,-4.9985,-5.007,-5.0084,-5.0121,-5.0193,-5.0203,-5.0151,-5.015,-5.0261,-5.0272,-5.0284,-5.0374,-5.0322,-5.0328,-5.0332,-5.0545,-5.0548,-5.055,0,0,0,0,0,0,-4.9896,-4.9914,-5.0074,-5.0005,-5.0025,-5.0076,-5.0117,-5.0124,-5.0152,-5.0206,-5.0215,-5.017,-5.026,-5.0275,-5.0348,-5.0379,-5.0331,-5.0337,-5.0543,-5.0546,-5.0549,-5.0556,0,0,0,0,0,0,-4.989,-4.9913,-4.9941,-5.0005,-5.0029,-5.0137,-5.0119,-5.0128,-5.0163,-5.0163,-5.0226,-5.0235,-5.026,-5.0339,-5.0355,-5.0387,-5.0342,-5.054,-5.0544,-5.0548,-5.0553,-5.0559,-5.0564,0,0,0,0,0,-4.9882,-4.9938,-4.9942,-4.9961,-5.0065,-5.0139,-5.0152,-5.018,-5.0166,-5.0194,-5.023,-5.0233,-5.0374,-5.0346,-5.0364,-5.0398,-5.0538,-5.0543,-5.0547,-5.0551,-5.0558,-5.0564,0,0,0,0,0,0,-4.9874,-4.9946,-4.9952,-5.003,-5.0079,-5.0141,-5.0178,-5.0186,-5.0238,-5.0236,-5.0268,-5.0282,-5.0354,-5.0384,-5.0352,-5.0474,-5.0455,-5.0463,-5.0451,-5.0458,-5.0463,-5.0453,-5.0347,0,0,0,0,0,-4.9882,-4.9936,-4.9996,-5.0059,-5.0083,-5.0127,-5.0159,-5.0177,-5.0228,-5.0248,-5.0288,-5.0336,-5.0392,-5.0427,-5.0481,-5.0559,-5.0573,-5.0591,-5.0597,-5.0601,-5.0607,-5.0651,-5.066,-5.0565,-5.0565,-5.0565,0,0,-4.9898,-4.9944,-4.9976,-5.0059,-5.0098,-5.0153,-5.0143,-5.0201,-5.0242,-5.0256,-5.0328,-5.036,-5.0416,-5.0492,-5.0528,-5.0519,-5.0637,-5.0607,-5.0609,-5.0613,-5.0656,-5.0665,-5.0673,-5.0568,-5.0567,-5.0567,0,0,-4.9954,-4.9995,-5.0052,-5.0092,-5.0152,-5.0181,-5.0195,-5.0257,-5.0279,-5.0352,-5.0364,-5.0413,-5.0508,-5.0547,-5.058,-5.0655,-5.066,-5.0671,-5.0698,-5.074,-5.0748,-5.0755,-5.078,-5.0789,-5.0678,-5.0678,-5.0678,0,-4.9965,-5.0049,-5.008,-5.0138,-5.0174,-5.0192,-5.025,-5.0287,-5.0361,-5.0386,-5.0376,-5.0496,-5.0535,-5.0621,-5.0639,-5.0666,-5.0682,-5.0663,-5.0744,-5.0751,-5.0758,-5.0783,-5.0793,-5.0679,-5.0679,-5.0679,-5.0678,0,-5.006,-5.0118,-5.0157,-5.0229,-5.027,-5.0328,-5.0368,-5.0406,-5.0421,-5.0451,-5.0525,-5.0574,-5.0638,-5.066,-5.0675,-5.0749,-5.0742,-5.0738,-5.0719,-5.0768,-5.0791,-5.0801,-5.068,-5.068,-5.0679,-5.0679,0,0,-5.0111,-5.0203,-5.0216,-5.0249,-5.0319,-5.0364,-5.0423,-5.0487,-5.0518,-5.057,-5.062,-5.0701,-5.0699,-5.0736,-5.0756,-5.0793,-5.0849,-5.0785,-5.0787,-5.0794,-5.0933,-5.0933,-5.0944,-5.0854,-5.0856,-5.0857,-5.0927,0,-5.0174,-5.028,-5.0311,-5.04,-5.0454,-5.0473,-5.0525,-5.0573,-5.0603,-5.0653,-5.0687,-5.0743,-5.0737,-5.0759,-5.0797,-5.0834,-5.0877,-5.0829,-5.0899,-5.0902,-5.0882,-5.0957,-5.0957,-5.1021,-5.0937,-5.0939,-5.094,0,-5.0261,-5.0316,-5.041,-5.0474,-5.0498,-5.0543,-5.0605,-5.0653,-5.0708,-5.0728,-5.0771,-5.0788,-5.085,-5.083,-5.0917,-5.0884,-5.0915,-5.0938,-5.0941,-5.0946,-5.0922,-5.0963,-5.1042,-5.1051,-5.0955,-5.0954,-5.0953,0,-5.0288,-5.0385,-5.0455,-5.0483,-5.0559,-5.059,-5.0623,-5.0677,-5.0714,-5.0768,-5.0793,-5.0853,-5.0886,-5.0933,-5.0966,-5.0948,-5.105,-5.1032,-5.1067,-5.1066,-5.1085,-5.1083,-5.1169,-5.1108,-5.1108,-5.1108,-5.1108,0,-5.0354,-5.0411,-5.0468,-5.051,-5.0575,-5.061,-5.0673,-5.0707,-5.0755,-5.0805,-5.0825,-5.0871,-5.0913,-5.0965,-5.0992,-5.1059,-5.1074,-5.1091,-5.1097,-5.1088,-5.1086,-5.1107,-5.1103,-5.1111,-5.111,-5.111,-5.1109,0,-5.0394,-5.0434,-5.0511,-5.0577,-5.0595,-5.064,-5.0697,-5.0739,-5.0771,-5.0833,-5.085,-5.0901,-5.0963,-5.1001,-5.108,-5.1098,-5.1172,-5.1177,-5.1153,-5.1155,-5.1188,-5.1183,-5.1288,-5.1304,-5.1235,-5.1235,-5.1236,0,-5.0432,-5.0476,-5.0548,-5.0583,-5.0617,-5.0673,-5.0711,-5.0749,-5.0788,-5.0855,-5.0889,-5.0953,-5.1005,-5.1104,-5.1147,-5.1208,-5.1213,-5.1246,-5.1222,-5.1212,-5.1212,-5.1209,-5.1213,-5.1249,-5.125,-5.125,-5.1251,0,-5.0496,-5.0514,-5.0568,-5.0631,-5.0676,-5.0727,-5.0777,-5.0805,-5.0851,-5.0894,-5.0958,-5.0999,-5.108,-5.1143,-5.1208,-5.1242,-5.1254,-5.1258,-5.1269,-5.1259,-5.1243,-5.1251,-5.1162,-5.1255,-5.1255,-5.1254,-5.1254,-5.1254,-5.0535,-5.0575,-5.0633,-5.0693,-5.0735,-5.0783,-5.0825,-5.0864,-5.0919,-5.0988,-5.1007,-5.1074,-5.113,-5.1218,-5.1254,-5.1307,-5.1302,-5.1318,-5.1322,-5.1325,-5.1325,-5.1237,-5.1319,-5.1319,-5.1319,-5.1319,-5.1319,0,-5.0599,-5.0637,-5.0692,-5.0763,-5.0811,-5.082,-5.0877,-5.0916,-5.0975,-5.1026,-5.1078,-5.1152,-5.1214,-5.1264,-5.1327,-5.136,-5.1367,-5.1375,-5.1372,-5.138,-5.1326,-5.131,-5.1368,-5.1368,-5.1368,-5.1368,-5.1368,-5.1368,-5.0637,-5.0706,-5.0732,-5.0822,-5.086,-5.0926,-5.0958,-5.1002,-5.1043,-5.1125,-5.1177,-5.1209,-5.126,-5.1328,-5.1385,-5.1398,-5.142,-5.1426,-5.144,-5.1389,-5.1383,-5.1378,-5.1363,-5.1431,-5.1431,-5.1489,-5.149,-5.149]},{"header":{"parameterUnit":"m.s-1","parameterCategory":1,"la1":30.2991,"la2":30.254,"lo1":-89.0895,"lo2":-89.0444,"dy":0.0017,"dx":0.0017,"nx":28,"ny":28,"refTime":"2025-04-05T09:00:00:Z","depth":0,"parameterNumber":3,"parameterNumberName":"V-component_of_WINDS"},"data":[0,0,0,0,0,0,0,0,0,0,0,0,0,0,0,0,0,0,0,0,0,0,0,0,0,0,0,0,0,0,0,0,0,0,0,0,0,0,0,0,0,0,0,0,0,0,0,0,0,0,0,0,0,0,0,0,0,0,5.8507,5.8509,0,5.8714,5.8716,5.8718,5.8758,5.8756,5.8754,5.8753,5.8962,5.8969,5.8976,0,0,0,0,0,0,0,0,0,0,0,0,0,5.8147,5.8153,5.8507,5.851,5.8512,5.8713,5.8716,5.8719,5.8758,5.8756,5.8754,5.8752,5.896,5.8968,5.8977,0,0,0,0,0,0,0,0,0,0,0,0,0,5.8323,5.8155,5.8506,5.8556,5.8562,5.8713,5.8716,5.872,5.8758,5.8756,5.8753,5.8751,5.8957,5.8967,5.8978,5.9093,0,0,5.9011,5.9015,0,0,0,0,0,0,0,0,5.8313,5.8336,5.8546,5.8553,5.856,5.8707,5.8666,5.8845,5.8759,5.8684,5.8753,5.875,5.8879,5.8896,5.894,5.9103,5.9112,5.9011,5.9018,5.9022,5.9026,0,0,0,0,0,0,0,5.8301,5.8328,5.8589,5.8549,5.8558,5.8568,5.859,5.87,5.8793,5.869,5.8694,5.8718,5.8883,5.893,5.8945,5.9115,5.9011,5.9021,5.9027,5.9031,5.9386,5.9389,0,0,0,0,0,0,5.828,5.8317,5.8582,5.8595,5.8428,5.8577,5.8602,5.8663,5.8792,5.8809,5.872,5.8719,5.8913,5.8933,5.8953,5.9099,5.9022,5.9032,5.9039,5.9383,5.9387,5.939,0,0,0,0,0,0,5.8272,5.8303,5.8574,5.8457,5.8493,5.8585,5.8654,5.8668,5.8715,5.8814,5.8831,5.8751,5.8912,5.8938,5.9059,5.9107,5.9037,5.9047,5.938,5.9384,5.9388,5.939,0,0,0,0,0,0,5.8262,5.83,5.8344,5.8458,5.8499,5.8676,5.8657,5.8674,5.8734,5.8735,5.8848,5.8864,5.8912,5.9043,5.907,5.912,5.9055,5.9376,5.9382,5.9387,5.9386,5.9394,5.9401,0,0,0,0,0,5.8249,5.8335,5.8346,5.8378,5.8556,5.8679,5.8702,5.8756,5.8737,5.8783,5.8847,5.886,5.9097,5.9055,5.9085,5.914,5.9373,5.938,5.9387,5.9383,5.9392,5.94,0,0,0,0,0,0,5.8224,5.8351,5.8365,5.8491,5.8574,5.8685,5.8744,5.8764,5.8853,5.885,5.8913,5.8938,5.9056,5.911,5.9061,5.926,5.9234,5.9247,5.922,5.923,5.9238,5.9223,5.9064,0,0,0,0,0,5.8233,5.8322,5.8429,5.853,5.8571,5.865,5.8706,5.8741,5.8829,5.8864,5.8937,5.9021,5.9116,5.9176,5.9267,5.9394,5.942,5.9447,5.9454,5.9459,5.947,5.9544,5.9558,5.9413,5.9412,5.9412,0,0,5.8253,5.8333,5.8386,5.8527,5.8595,5.8687,5.868,5.8776,5.8845,5.8878,5.8998,5.9055,5.9154,5.9279,5.9337,5.9327,5.9517,5.9468,5.9472,5.948,5.9553,5.9567,5.9579,5.9417,5.9416,5.9416,0,0,5.8336,5.8405,5.8499,5.8568,5.8673,5.8726,5.8748,5.8858,5.8897,5.9018,5.9046,5.9129,5.9289,5.9359,5.9416,5.953,5.9546,5.9558,5.9596,5.9668,5.9679,5.969,5.9733,5.9747,5.9568,5.9568,5.9568,0,5.8347,5.8487,5.8544,5.8641,5.8703,5.8739,5.8835,5.8899,5.9028,5.907,5.9057,5.9261,5.933,5.9473,5.9502,5.9546,5.9574,5.9545,5.9673,5.9684,5.9695,5.9736,5.9752,5.9569,5.9569,5.9569,5.9569,0,5.8497,5.8594,5.8656,5.8782,5.8851,5.8947,5.9019,5.9082,5.9112,5.9166,5.9291,5.9375,5.9486,5.9523,5.9551,5.9672,5.9663,5.966,5.9636,5.9709,5.9749,5.9765,5.957,5.957,5.957,5.9569,0,0,5.8569,5.8727,5.8749,5.8808,5.8928,5.9004,5.9102,5.9212,5.9266,5.9354,5.9439,5.9575,5.9575,5.9639,5.9676,5.9739,5.9827,5.973,5.9733,5.9747,5.9968,5.997,5.9988,5.9839,5.9842,5.9845,5.9961,0,5.8669,5.8846,5.8901,5.9049,5.9141,5.9178,5.9264,5.9347,5.9401,5.9487,5.9546,5.9643,5.9634,5.9674,5.9737,5.9803,5.9873,5.9795,5.9919,5.9923,5.9895,6.0008,6.001,6.0115,5.9976,5.9979,5.9981,0,5.8808,5.8901,5.9058,5.9169,5.921,5.9286,5.9393,5.9474,5.957,5.9605,5.9679,5.9712,5.9817,5.9786,5.9933,5.9879,5.9933,5.9973,5.9979,5.9993,5.9957,6.0028,6.015,6.0167,6.0006,6.0004,6.0002,0,5.8847,5.9011,5.9128,5.9177,5.9308,5.9362,5.9419,5.9513,5.9576,5.9669,5.9712,5.9815,5.9872,5.9952,6.0013,5.9984,6.0155,6.0129,6.0189,6.0187,6.0224,6.0221,6.0358,6.0256,6.0256,6.0255,6.0255,0,5.8953,5.9049,5.9148,5.922,5.9329,5.9392,5.9499,5.9558,5.9641,5.9726,5.9763,5.9842,5.9917,6.0006,6.0054,6.017,6.0194,6.0227,6.0238,6.0224,6.0221,6.0261,6.0256,6.026,6.0259,6.0258,6.0257,0,5.9016,5.9086,5.9216,5.9331,5.9363,5.9438,5.9537,5.9609,5.9665,5.9772,5.9801,5.989,5.9997,6.0065,6.02,6.0233,6.0361,6.0369,6.0329,6.0335,6.0392,6.0386,6.0561,6.0589,6.0466,6.0467,6.0468,0,5.908,5.9155,5.9279,5.9339,5.9397,5.9493,5.9559,5.9625,5.9692,5.9808,5.9867,5.9976,6.0068,6.0237,6.0314,6.0418,6.0431,6.0485,6.0447,6.0431,6.0434,6.043,6.0439,6.0491,6.0492,6.0493,6.0494,0,5.9187,5.9218,5.9312,5.9419,5.9497,5.9584,5.9671,5.9718,5.9799,5.9873,5.9984,6.0055,6.0195,6.0304,6.0416,6.0476,6.0499,6.0506,6.0526,6.0512,6.0487,6.0504,6.0348,6.0501,6.0501,6.05,6.05,6.0499,5.9254,5.9323,5.9422,5.9526,5.9599,5.9681,5.9755,5.9822,5.9915,6.0035,6.0068,6.0185,6.0281,6.0435,6.0496,6.0589,6.0582,6.061,6.0617,6.0624,6.0626,6.0471,6.0609,6.0609,6.0609,6.0609,6.0609,0,5.9364,5.943,5.9526,5.9648,5.973,5.9746,5.9844,5.9912,6.0014,6.0102,6.0193,6.0321,6.0428,6.0514,6.0624,6.0682,6.0696,6.0709,6.0706,6.072,6.0624,6.0597,6.0696,6.0696,6.0696,6.0696,6.0696,6.0696,5.9432,5.9551,5.9595,5.9752,5.9817,5.9933,5.9988,6.0064,6.0135,6.0277,6.0367,6.0423,6.0511,6.0629,6.0728,6.0751,6.079,6.0801,6.0826,6.0736,6.0726,6.0717,6.0692,6.0809,6.0809,6.0915,6.0916,6.0916]}]]